Regional Weather Roundup
Issued by NWS

Home | Current Version | Previous Version | Graphics & Text | Print | Product List | Glossary On
Versions: 1 2 3 4 5 6 7 8 9 10 11 12 13 14 15 16 17 18 19 20 21 22 23 24 25 26 27 28 29 30 31 32 33 34 35 36 37 38 39 40 41 42 43 44 45 46 47 48 49 50
000
ASUS45 KTFX 220104
RWRMT
MONTANA HOURLY WEATHER ROUNDUP
NATIONAL WEATHER SERVICE GREAT FALLS MT
704 PM MDT SUN SEP 21 2014

NOTE: "FAIR" INDICATES FEW OR NO CLOUDS BELOW 12000 FEET WITH NO
SIGNIFICANT WEATHER AND/OR OBSTRUCTIONS TO VISIBILITY.

* THESE STATIONS ARE NOT UNDER NWS QUALITY CONTROL. THEY DO NOT
   REPORT WEATHER SUCH AS PRECIPITATION OR FOG.

MTZ001>007-043-220200-
WEST OF THE DIVIDE
CITY           SKY/WX    TMP DP  RH WIND       PRES   REMARKS
KALISPELL      PTCLDY    81  39  22 CALM      29.94F
MISSOULA       CLOUDY    81  43  26 N9        29.95S
BUTTE          CLOUDY    72  37  28 S14       30.13F
MULLAN PASS    PTCLDY    72  37  28 CALM      30.14S
* ESSEX        N/A       69  45  42 S5         N/A
* LINCOLN      N/A       78  36  22 E8G14      N/A
* LOOKOUT PASS N/A       72  43  35 N/A        N/A
* POLSON       N/A       73  42  33 N1         N/A
* RONAN APT    PTCLDY    79  43  28 N/A        N/A
* SEELEY LAKE  N/A       84  34  17 SW4        N/A
* THOMP F APT  PTCLDY    70  40  34 S6G11      N/A
$$

MTZ008-052>055-220200-
SOUTHWEST MONTANA
CITY           SKY/WX    TMP DP  RH WIND       PRES   REMARKS
BOZEMAN        CLOUDY    70  48  46 SW3       30.10F
DILLON         CLOUDY    70  43  38 NE7       30.10F
W YELLOWSTONE  CLOUDY    64  43  47 CALM      30.22S
* THREE FORKS  CLOUDY    73  59  62 N/A        N/A
* BOULDER HILL N/A       68  39  35 SW6        N/A
* MONIDA PASS  N/A       65  41  42 S4         N/A
* RAYNOLDS PAS N/A       67  58  73 W6         N/A
* WHITEHALL    N/A       74  45  36 E6G12      N/A
* WISE RIVER   N/A       74  37  26 SE11G16    N/A
$$

MTZ009>010-012-014-046-048-049-054-220200-
EAST SLOPES AND CENTRAL MONTANA
CITY           SKY/WX    TMP DP  RH WIND       PRES   REMARKS
CUT BANK       PTCLDY    72  41  33 SE9       30.04F
GREAT FALLS    PTCLDY    70  48  46 E7        30.04F
HELENA         CLOUDY    75  45  34 W6        30.03F
MALMSTROM AFB  PTCLDY    73  46  38 NE5       30.04F
* CONRAD       PTCLDY    73  45  37 E5         N/A
* EAST GLACIER N/A       69  44  41 S8         N/A
* MONARCH      N/A       68  41  38 NE11       N/A
* PENDROY      N/A       72  46  40 S9         N/A
* ROGERS PASS  N/A       62  40  45 NW2        N/A
* SAINT MARY   N/A       78  41  27 SE5G12     N/A
* SWEET GRASS  N/A       72  40  31 S16        N/A
$$

MTZ011-013-016-021-035-040-045-047-050-051-220200-
NORTH CENTRAL MONTANA
CITY           SKY/WX    TMP DP  RH WIND       PRES   REMARKS
HAVRE          PTCLDY    72  48  43 E10       30.03F
LEWISTOWN      PTCLDY    66  45  47 E10       30.11F
* CHESTER      N/A       75  43  32 SE6G11     N/A
* DENTON       N/A       72  40  31 S14G20     N/A
* GEYSER       N/A       68  42  39 E14G19     N/A
* JUDITH GAP   N/A       65  44  47 SE10G15    N/A
* LOMA         N/A       75  47  37 NE12       N/A
$$

MTZ017>020-022>027-061-062-220200-
NORTHEAST MONTANA
CITY           SKY/WX    TMP DP  RH WIND       PRES   REMARKS
GLASGOW        CLEAR     66  39  37 E8        30.12F
JORDAN         N/A       68  46  45 SE6       30.12F
SIDNEY         CLEAR    N/A N/A N/A S5        30.18S
WOLF POINT     CLEAR     70  41  35 E3        30.13F
* BEAVER HILL  N/A       67  32  27 SE2        N/A
* CIRCLE       N/A       71  43  37 N/A        N/A
* LINDSAY DVD  N/A       63  37  38 E6         N/A
$$

MTZ028>042-056>058-220200-
SOUTHCENTRAL AND SOUTHEAST MONTANA
CITY           SKY/WX    TMP DP  RH WIND       PRES   REMARKS
BAKER          CLEAR     63  37  38 SE7       30.20F
BILLINGS       MOCLDY    72  43  35 E6        30.12F
LIVINGSTON     CLOUDY    68  46  45 E10       30.13F
MILES CITY     CLEAR     72  37  28 E6        30.14F
* LAUREL APT   CLOUDY    73  43  34 N/A        N/A
* ROUNDUP APT  PTCLDY    73  45  37 N/A        N/A
* ALZADA       N/A       63  36  37 E6         N/A
* HYSHAM       N/A       70  41  35 E8         N/A
* LAME DEER    N/A       66  41  40 E7         N/A
* REED POINT   N/A       70  44  39 SE2        N/A
* ROSCOE HILL  N/A       66  36  33 NW4        N/A
$$

REGIONAL REPORTS...DAKOTAS
CITY           SKY/WX    TMP DP  RH WIND       PRES   REMARKS
WILLISTON      CLEAR     66  36  33 SE3       30.17F
DICKINSON      CLEAR     66  36  33 E5        30.20F
BEACH          N/A       59  37  44 SE8       30.20F
CROSBY         CLEAR     57  39  51 S6        30.17S
TIOGA          CLEAR     54  34  47 S6        30.21F
WATFORD CITY   HAZE      59  36  42 S5        30.16F VSB 1 3/4
BISMARCK       CLEAR     61  45  56 SE3       30.21F
GRAND FORKS    CLEAR     59  50  72 SE5       30.18F
FARGO          CLEAR     55  50  83 E7        30.21R
BUFFALO SD     CLEAR     64  37  37 E9        30.16F
RAPID CITY     CLEAR     61  41  48 SE7       30.25F
$$

REGIONAL REPORTS...WYOMING/IDAHO/WASHINGTON
CITY           SKY/WX    TMP DP  RH WIND       PRES   REMARKS
GILLETTE       PTCLDY    66  41  40 SE10      30.21F
SHERIDAN       MOCLDY    66  45  47 S5        30.15F
CODY           MOCLDY   N/A N/A N/A N/A        N/A
YELLOWSTONE LA CLOUDY    57  46  67 CALM      30.33S
SALMON         CLOUDY    72  54  53 CALM      29.97S
MULLAN PASS    PTCLDY    72  37  28 CALM      30.14S
SAND POINT     PTCLDY    75  52  45 CALM      29.90S
SPOKANE        PTCLDY    86  39  19 NW6       29.90F
$$

REGIONAL REPORTS...SASKATCHEWAN
CITY           SKY/WX    TMP DP  RH WIND       PRES   REMARKS
MOOSE JAW      N/A      N/A N/A N/A S5         N/A

$$



USA.gov is the U.S. government's official web portal to all federal, state and local government web resources and services.